リニア彗星

277P/LINEAR (2020)

English version
Home page
Updated on January 23, 2021

---------------------------------------------------------------------

・ プロフィール

・ 写真集

・ 軌道要素

Epoch 2020 Dec. 17.0 TT = JDT 2459200.5
T 2020 Dec. 30.17468 TT                                 Rudenko
q   1.9044547            (2000.0)            P               Q
n   0.13036153     Peri.  152.31920     +0.34417976     -0.89399288
a   3.8521490      Node   276.34484     +0.79925187     +0.43932271
e   0.5056124      Incl.   16.77881     +0.49268321     -0.08816059
P   7.56
From 206 observations 2005 Sept. 15-2020 Sept. 21, mean residual 0".7.

・ 星図

・ 光度変化

        m1 = 7.0 + 5 logΔ + 30.0 log r(t - 50)

---------------------------------------------------------------------

軌道要素はM.P.E.C. 2020-S188に掲載されたものです。
星図はステラナビゲータ Ver.10 (アストロアーツ) で作成したものです。
光度グラフはComet for Windowsで作成したものです。

---------------------------------------------------------------------

Copyright(C) Seiichi Yoshida (comet@aerith.net). All rights reserved.